Weather History for Paris Le Bourget, France

Change the Weather History Date:

Saturday, March 2, 2013

  Actual Average Record
Temperature  
Mean Temperature 36 °F -  
Max Temperature 39 °F 53 °F 59 °F (1997)
Min Temperature 33 °F 39 °F 24 °F (2004)
Degree Days  
Heating Degree Days 29    
Moisture  
Dew Point 28 °F    
Average Humidity 73    
Maximum Humidity 81    
Minimum Humidity 65    
Precipitation  
Precipitation 0.00 in 0.07 in - ()
Sea Level Pressure  
Sea Level Pressure 30.26 in    
Wind  
Wind Speed 8 mph ()    
Max Wind Speed 12 mph    
Max Gust Speed -    
Visibility 5.9 miles    
Events      
Averages and records for this station are not official NWS values.
T = Trace of Precipitation, MM = Missing Value Source: Averaged Metar Reports

Daily Weather History Graph

Daily Weather History Graph

Search for Another Location

Airport:

Trip Planner

Search our weather history database for the weather conditions in past years. The results will help you decide how hot, cold, wet, or windy it might be!

Date:

Astronomy

Mar. 02, 2013 Rise Set
Actual Time 7:30 AM CET 6:35 PM CET
Civil Twilight 6:58 AM CET 7:07 PM CET
Nautical Twilight 6:22 AM CET 7:43 PM CET
Astronomical Twilight 5:45 AM CET 8:20 PM CET
Moon No Moon Rise 9:18 AM CET
Length of Visible Light 12h 08m
Length of Day
11h 05m
Waning Gibbous, 76% of the Moon is Illuminated
Mar 2
Waning Gibbous
Mar 4
Last Quarter
Mar 11
New
Mar 19
First Quarter
Mar 27
Full

Hourly Weather History & Observations

Time (CET) Temp. Windchill Dew Point Humidity Pressure Visibility Wind Dir Wind Speed Gust Speed Precip Events Conditions
12:00 AM 39.2 °F 33.6 °F 32.0 °F 75% 30.27 in 6.2 mi NE 8.1 mph - N/A   Overcast
12:30 AM 37.4 °F 30.8 °F 32.0 °F 81% 30.27 in 6.2 mi NE 9.2 mph - N/A   Overcast
1:00 AM 37.4 °F 30.8 °F 30.2 °F 75% 30.27 in 6.2 mi NNE 9.2 mph - N/A   Overcast
1:30 AM 37.4 °F 30.8 °F 28.4 °F 70% 30.27 in 6.2 mi NE 9.2 mph - N/A   Overcast
2:00 AM 35.6 °F 27.5 °F 28.4 °F 75% 30.27 in 6.2 mi NE 11.5 mph - N/A   Overcast
2:30 AM 35.6 °F 29.2 °F 28.4 °F 75% 30.27 in 6.2 mi NE 8.1 mph - N/A   Overcast
3:00 AM 35.6 °F 28.6 °F 28.4 °F 75% 30.27 in 6.2 mi NE 9.2 mph - N/A   Overcast
3:30 AM 35.6 °F 28.6 °F 28.4 °F 75% 30.27 in 6.2 mi NE 9.2 mph - N/A   Overcast
4:00 AM 35.6 °F 28.0 °F 26.6 °F 70% 30.27 in 6.2 mi NE 10.4 mph - N/A   Overcast
4:30 AM 35.6 °F 28.6 °F 28.4 °F 75% 30.27 in 6.2 mi NE 9.2 mph - N/A   Overcast
5:00 AM 35.6 °F 27.5 °F 26.6 °F 70% 30.27 in 6.2 mi NE 11.5 mph - N/A   Overcast
5:30 AM 35.6 °F 27.5 °F 26.6 °F 70% 30.27 in 6.2 mi NE 11.5 mph - N/A   Overcast
6:00 AM 35.6 °F 28.0 °F 26.6 °F 70% 30.27 in 6.2 mi ENE 10.4 mph - N/A   Overcast
6:30 AM 35.6 °F 28.0 °F 26.6 °F 70% 30.27 in 6.2 mi ENE 10.4 mph - N/A   Overcast
7:00 AM 33.8 °F 25.8 °F 26.6 °F 75% 30.27 in 6.2 mi ENE 10.4 mph - N/A   Overcast
7:30 AM 33.8 °F 26.4 °F 26.6 °F 75% 30.27 in 6.2 mi ENE 9.2 mph - N/A   Overcast
8:00 AM 33.8 °F 27.0 °F 26.6 °F 75% 30.27 in 6.2 mi NE 8.1 mph - N/A   Overcast
8:30 AM 35.6 °F 28.6 °F 26.6 °F 70% 30.27 in 5.6 mi ENE 9.2 mph - N/A   Overcast
9:00 AM 35.6 °F 29.9 °F 28.4 °F 75% 30.27 in 5.0 mi NE 6.9 mph - N/A   Overcast
9:30 AM 35.6 °F 29.2 °F 28.4 °F 75% 30.27 in 5.0 mi ENE 8.1 mph - N/A   Overcast
10:00 AM 35.6 °F 28.6 °F 28.4 °F 75% 30.27 in 6.2 mi East 9.2 mph - N/A   Overcast
10:30 AM 35.6 °F 28.6 °F 28.4 °F 75% 30.27 in 6.2 mi East 9.2 mph - N/A   Overcast
11:00 AM 35.6 °F 29.2 °F 28.4 °F 75% 30.27 in 6.2 mi ENE 8.1 mph - N/A   Overcast
11:30 AM 35.6 °F 28.6 °F 28.4 °F 75% 30.27 in 6.2 mi ENE 9.2 mph - N/A   Overcast
12:00 PM 35.6 °F 28.6 °F 28.4 °F 75% 30.27 in 6.2 mi ENE 9.2 mph - N/A   Overcast
12:30 PM 35.6 °F 29.9 °F 28.4 °F 75% 30.27 in 6.2 mi NE 6.9 mph - N/A   Overcast
1:00 PM 37.4 °F 32.1 °F 28.4 °F 70% 30.27 in 6.2 mi NE 6.9 mph - N/A   Overcast
1:30 PM 37.4 °F 32.1 °F 28.4 °F 70% 30.27 in 6.2 mi ENE 6.9 mph - N/A   Overcast
2:00 PM 37.4 °F 31.4 °F 28.4 °F 70% 30.27 in 6.2 mi ENE 8.1 mph - N/A   Overcast
2:30 PM 37.4 °F 33.8 °F 28.4 °F 70% 30.24 in 6.2 mi ENE 4.6 mph - N/A   Overcast
3:00 PM 37.4 °F 32.1 °F 28.4 °F 70% 30.24 in 6.2 mi NNE 6.9 mph - N/A   Overcast
3:30 PM 37.4 °F 32.1 °F 28.4 °F 70% 30.24 in 6.2 mi NNE 6.9 mph - N/A   Overcast
4:00 PM 39.2 °F 34.2 °F 28.4 °F 65% 30.24 in 6.2 mi NNE 6.9 mph - N/A   Overcast
4:30 PM 37.4 °F 31.4 °F 28.4 °F 70% 30.24 in 6.2 mi ENE 8.1 mph - N/A   Overcast
5:00 PM 37.4 °F 32.8 °F 28.4 °F 70% 30.24 in 6.2 mi NE 5.8 mph - N/A   Overcast
5:30 PM 37.4 °F 32.1 °F 28.4 °F 70% 30.24 in 6.2 mi ENE 6.9 mph - N/A   Overcast
6:00 PM 37.4 °F 33.8 °F 28.4 °F 70% 30.24 in 6.2 mi NE 4.6 mph - N/A   Overcast
6:30 PM 37.4 °F 32.8 °F 28.4 °F 70% 30.24 in 6.2 mi NE 5.8 mph - N/A   Overcast
7:00 PM 35.6 °F 29.2 °F 28.4 °F 75% 30.24 in 6.2 mi ENE 8.1 mph - N/A   Overcast
7:30 PM 35.6 °F 30.7 °F 28.4 °F 75% 30.24 in 5.6 mi ENE 5.8 mph - N/A   Overcast
8:00 PM 35.6 °F 30.7 °F 28.4 °F 75% 30.24 in 5.0 mi ENE 5.8 mph - N/A   Overcast
8:30 PM 35.6 °F 30.7 °F 28.4 °F 75% 30.24 in 5.6 mi NE 5.8 mph - N/A   Overcast
9:00 PM 35.6 °F 30.7 °F 28.4 °F 75% 30.24 in 5.0 mi NE 5.8 mph - N/A   Overcast
9:30 PM 35.6 °F 29.9 °F 28.4 °F 75% 30.24 in 5.0 mi ENE 6.9 mph - N/A   Overcast
10:00 PM 35.6 °F 31.7 °F 28.4 °F 75% 30.24 in 5.0 mi ENE 4.6 mph - N/A   Overcast
10:30 PM 35.6 °F 30.7 °F 28.4 °F 75% 30.24 in 4.3 mi ENE 5.8 mph - N/A   Overcast
11:00 PM 35.6 °F 29.9 °F 28.4 °F 75% 30.24 in 4.3 mi ENE 6.9 mph - N/A   Overcast
11:30 PM 35.6 °F 30.7 °F 28.4 °F 75% 30.24 in 4.3 mi ENE 5.8 mph - N/A   Overcast